Pittsburgh Allegheny Co., PA

4:17 PM EST on January 20, 2018 (GMT -0500)
Allegheny County

Weather History for KAGC - June, 2013

Change the Weather History Date:

Saturday, June 15, 2013

  Actual Average Record
Temperature  
Mean Temperature 66 °F -  
Max Temperature 77 °F 81 °F 90 °F (1988)
Min Temperature 55 °F 55 °F 48 °F (1991)
Cooling Degree Days 1    
Growing Degree Days 16 (Base 50)    
Moisture  
Dew Point 51 °F    
Average Humidity 59    
Maximum Humidity 90    
Minimum Humidity 33    
Precipitation  
Precipitation 0.00 in - - ()
Sea Level Pressure  
Sea Level Pressure 30.08 in    
Wind  
Wind Speed 5 mph (West)    
Max Wind Speed 10 mph    
Max Gust Speed 16 mph    
Visibility 10 miles    
Events      
Averages and records for this station are not official NWS values.
T = Trace of Precipitation, MM = Missing Value Source: NWS Daily Summary

Daily Weather History Graph

Daily Weather History Graph

Search for Another Location

Airport or City:

Trip Planner

Search our weather history database for the weather conditions in past years. The results will help you decide how hot, cold, wet, or windy it might be!

Date:

Astronomy

Jun. 15, 2013 Rise Set
Actual Time 5:49 AM EDT 8:51 PM EDT
Civil Twilight 5:16 AM EDT 9:24 PM EDT
Nautical Twilight 4:34 AM EDT 10:06 PM EDT
Astronomical Twilight 3:44 AM EDT 10:56 PM EDT
Moon 12:23 PM EDT (6/15) 12:25 AM EDT (6/15)
Length of Visible Light 16h 08m
Length of Day
15h 02m
Waxing Crescent, 39% of the Moon is Illuminated
Jun 15
Waxing Crescent
Jun 16
First Quarter
Jun 23
Full
Jun 30
Last Quarter
Jul 8
New

Hourly Weather History & Observations

Time (EDT) Temp. Dew Point Humidity Pressure Visibility Wind Dir Wind Speed Gust Speed Precip Events Conditions
12:53 AM 62.1 °F 55.0 °F 78% 30.07 in 10.0 mi NW 5.8 mph - N/A   Clear
1:53 AM 60.1 °F 55.0 °F 83% 30.05 in 10.0 mi NW 4.6 mph - N/A   Clear
2:53 AM 59.0 °F 54.0 °F 83% 30.06 in 10.0 mi NW 5.8 mph - N/A   Clear
3:53 AM 57.0 °F 53.1 °F 87% 30.05 in 10.0 mi SSW 3.5 mph - N/A   Clear
4:53 AM 55.9 °F 53.1 °F 90% 30.08 in 10.0 mi West 4.6 mph - N/A   Clear
5:53 AM 55.9 °F 53.1 °F 90% 30.09 in 10.0 mi WSW 4.6 mph - N/A   Clear
6:53 AM 57.0 °F 53.1 °F 87% 30.11 in 10.0 mi WSW 4.6 mph - N/A   Clear
7:53 AM 60.1 °F 53.1 °F 78% 30.12 in 10.0 mi SW 3.5 mph - N/A   Clear
8:53 AM 63.0 °F 53.1 °F 70% 30.14 in 10.0 mi Calm Calm - N/A   Clear
9:53 AM 66.0 °F 51.1 °F 59% 30.14 in 10.0 mi West 4.6 mph - N/A   Clear
10:53 AM 69.1 °F 48.9 °F 49% 30.13 in 10.0 mi Variable 5.8 mph - N/A   Clear
11:53 AM 71.1 °F 48.0 °F 44% 30.12 in 10.0 mi NW 10.4 mph 16.1 mph N/A   Clear
12:53 PM 73.0 °F 48.9 °F 42% 30.10 in 10.0 mi Calm Calm - N/A   Clear
1:53 PM 73.9 °F 50.0 °F 43% 30.09 in 10.0 mi WSW 5.8 mph - N/A   Clear
2:53 PM 75.0 °F 46.0 °F 36% 30.08 in 10.0 mi Variable 6.9 mph - N/A   Clear
3:53 PM 75.9 °F 46.9 °F 36% 30.06 in 10.0 mi WNW 5.8 mph - N/A   Clear
4:53 PM 77.0 °F 46.0 °F 33% 30.05 in 10.0 mi West 6.9 mph - N/A   Clear
5:53 PM 75.9 °F 48.9 °F 38% 30.05 in 10.0 mi SW 4.6 mph - N/A   Clear
6:53 PM 75.0 °F 48.9 °F 40% 30.06 in 10.0 mi West 6.9 mph - N/A   Clear
7:53 PM 73.0 °F 50.0 °F 44% 30.05 in 10.0 mi West 5.8 mph - N/A   Clear
8:53 PM 73.0 °F 50.0 °F 44% 30.03 in 10.0 mi West 4.6 mph - N/A   Clear
9:53 PM 72.0 °F 51.1 °F 48% 30.02 in 10.0 mi SSW 4.6 mph - N/A   Clear
10:53 PM 71.1 °F 52.0 °F 51% 30.04 in 10.0 mi SW 6.9 mph - N/A   Mostly Cloudy
11:53 PM 71.1 °F 53.1 °F 53% 30.03 in 10.0 mi SW 5.8 mph - N/A   Overcast